This demonstration page uses our WeatherBlox Daily Observations layout. Learn more.

Left ArrowRight Arrow

Hourly Observations for March 2, 2017

Temp ( °F °C ) Dew Point ( °F °C ) Humidity (%) Winds ( mph kmh ) Pressure ( in mb ) Visibility ( mi km ) Precip ( " mm )
12:52 am 00:52 Clear 35 1.7 21 -6.1 57 57 NW 6 9 30.31 1027 10 16 0.00 0.00
1:52 am 01:52 Clear 32 0 21 -6.1 64 64 Calm 30.31 1026 10 16 0.00 0.00
2:52 am 02:52 Clear 29 -1.7 21 -6.1 72 72 Calm 30.32 1027 10 16 0.00 0.00
3:52 am 03:52 Clear 26 -3.3 20 -6.7 78 78 Calm 30.32 1027 10 16 0.00 0.00
4:52 am 04:52 Clear 25 -3.9 20 -6.7 81 81 Calm 30.33 1027 10 16 0.00 0.00
5:52 am 05:52 Clear 25 -3.9 20 -6.7 81 81 Calm 30.35 1028 10 16 0.00 0.00
6:52 am 06:52 Sunny 25 -3.9 19 -7.2 78 78 S 5 7 30.37 1029 10 16 0.00 0.00
7:52 am 07:52 Sunny 33 0.6 27 -2.8 78 78 SSW 3 6 30.40 1029 10 16 0.00 0.00
8:52 am 08:52 Sunny 41 5 26 -3.3 55 55 S 9 15 30.42 1030 10 16 0.00 0.00
9:52 am 09:52 Sunny 45 7.2 24 -4.4 44 44 SW 9 15 30.42 1030 10 16 0.00 0.00
10:52 am 10:52 Sunny 49 9.4 22 -5.6 35 35 SW 10 17 30.42 1030 10 16 0.00 0.00
11:52 am 11:52 Sunny 53 11.7 18 -7.8 25 25 WSW 12 19 30.41 1030 10 16 0.00 0.00
12:52 pm 12:52 Sunny 56 13.3 17 -8.3 22 22 W 15 24 30.39 1029 10 16 0.00 0.00
1:52 pm 13:52 Sunny 56 13.3 17 -8.3 22 22 W 21 33 30.37 1029 10 16 0.00 0.00
2:52 pm 14:52 Sunny 57 13.9 19 -7.2 23 23 W 24 39 30.37 1028 10 16 0.00 0.00
3:52 pm 15:52 Sunny 58 14.4 20 -6.7 23 23 W 21 33 30.36 1028 10 16 0.00 0.00
4:52 pm 16:52 Mostly Sunny 57 13.9 19 -7.2 23 23 WNW 16 26 30.35 1028 10 16 0.00 0.00
5:52 pm 17:52 Sunny 55 12.8 19 -7.2 24 24 NW 17 28 30.37 1028 10 16 0.00 0.00
6:52 pm 18:52 Clear 49 9.4 22 -5.6 35 35 NNW 12 19 30.40 1029 10 16 0.00 0.00
7:52 pm 19:52 Clear 43 6.1 23 -5 45 45 NNW 7 11 30.42 1030 10 16 0.00 0.00
8:52 pm 20:52 Clear 41 5 24 -4.4 51 51 NNW 8 13 30.43 1031 10 16 0.00 0.00
9:52 pm 21:52 Clear 43 6.1 23 -5 45 45 N 10 17 30.46 1032 10 16 0.00 0.00
10:52 pm 22:52 Clear 39 3.9 21 -6.1 48 48 N 7 11 30.48 1032 10 16 0.00 0.00
11:52 pm 23:52 Clear 37 2.8 19 -7.2 48 48 N 6 9 30.49 1032 10 16 0.00 0.00

Powered by AerisWeather